Location: Cabo di Oristano
(39.8500°N, 8.4333°E)
Time: 17:07:17
(UTC+00:00)

Cosmos 676 Rocket - Pass Details

Date: 31 January 2023
Orbit: 754 x 782 km, 74.0° (Epoch: 01 April)

Event Time Altitude Azimuth Distance (km) Brightness Sun altitude
Exits shadow 04:30:10 34° 345° (NNW) 1,233 4.9 -24.3°
Maximum altitude 04:32:29 85° 71° (ENE) 764 3.9 -23.8°
Drops below altitude 10° 04:37:38 10° 160° (SSE) 2,270 6.7 -22.8°
Sets 04:39:59 0° 161° (SSE) 3,191 7.5 -22.4°
